Weather in Sudislavl

Russia / Kostroma Oblast     57°52′54″N   41°42′38″E
temp.,
°C
wind,
m/s
gust,
m/s
humid.,
%
clouds,
%
prec.,
mm/h
press.,
hPa
HPBL,
m
16 april, fri
fri1600:00+5ene5138487 0.0 1025624
03:00+4ene51381100 0.0 1026541
06:00+3ene51375100 0.0 1027501
09:00+6ene6106023 0.0 1027565
12:00+10ene68488 0.0 1027898
15:00+11ene684422 0.0 10271058
18:00+9ene595344 0.0 1027882
21:00+6ene412695 0.0 1029517
17 april, sat
sat1700:00+4ene412763 0.0 1029424
03:00+2ene412805 0.0 1030336
06:00+2ene412775 0.0 1030348
09:00+7e59515 0.0 1030622
12:00+11e57395 0.0 10291120
15:00+12ene56393 0.0 10281355
18:00+10ene47490 0.0 1028754
21:00+5ene310690 0.0 1028233
18 april, sun
sun1800:00+4ene310770 0.0 1028224
03:00+2ene39870 0.0 1029188
06:00+2ene310855 0.0 1029262
09:00+8ene486096 0.0 1028654
12:00+11ene574559 0.0 10271482
15:00+12ene5746100 0.0 10271778
18:00+10ene4857100 0.0 10271051
21:00+6ene51176100 0.0 1029620
19 april, mon
mon1900:00+5ene41080100 0.0 1030556
03:00+4ene41080100 0.0 1030514
06:00+3e41072100 0.0 1030547
09:00+5e5960100 0.0 1031693
12:00+7e5747100 0.0 10311160
15:00+9ese5747100 0.0 10301537
18:00+7ese484661 0.0 10301276
21:00+4e4125080 0.0 1031533
20 april, tue
tue2000:00+2e41257100 0.0 1030457
03:00+1e4126289 0.0 1030422
06:000e4126548 0.0 1029448
09:00+5ese6115455 0.0 1027773
12:00+8ese6125181 0.0 10261213
15:00+8ese61353100 0.0 10231129
18:00+7ese61357100 0.0 10221188
21:00+6ese71568100 0.0 10201013